User: anonymous   Login
Location: Unspecified
(0.0000°N, 0.0000°E)
Time: 15:52:44
(UTC+00:00)
Language:

Courier 1B Rocket - Orbit

View from above orbital plane
View from above orbital plane
View from above satellite
View from above satellite

Ground track
Ground track

The orbit data is extracted from the following two-line orbital elements,

1    59U 60013B   17056.90922628 +.00000117 +00000-0 +33648-4 0  9998
2    59 028.2497 300.9590 0189328 231.1383 127.2129 13.52948220782946
Epoch (UTC): 25 February 2017 21:49:17
Eccentricity: 0.0189328
inclination: 28.2497°
perigee height: 920 km
apogee height: 1202 km
right ascension of ascending node: 300.9590°
argument of perigee: 231.1383°
revolutions per day: 13.52948220
mean anomaly at epoch: 127.2129°
orbit number at epoch: 78294

The dashed part of the orbit path shows where the satellite is in the earth's shadow,  

DLR